contact:dominique.lefevre@mio.osupytheas.fr, maurice.libes@osupytheas.fr, didier.mallarino@osupytheas.fr
Project:EMSO http://www.emso-fr.org/EMSO-France
Depth: 2436.0 m
Title:EMSO Ligure Ouest : Data MII capteur MICROCAT
DateTime_Computer,Latitude,Longitude,Temperature,Conductivity,Pressure,DateTime_Instrument
DateTime_Computer,Latitude,Longitude,degC,S m-1,dbar,DateTime_Instrument
2017-10-20T00:00:12Z,42.805,6.029,13.2937,4.59961,2471.957,2017-10-20T02:01:37Z
2017-10-20T00:01:46Z,42.805,6.029,13.2936,4.59961,2471.934,2017-10-20T02:03:12Z
2017-10-20T00:03:21Z,42.805,6.029,13.2934,4.59961,2471.934,2017-10-20T02:04:46Z
2017-10-20T00:04:56Z,42.805,6.029,13.2939,4.59963,2471.912,2017-10-20T02:06:21Z
2017-10-20T00:06:31Z,42.805,6.029,13.2936,4.59963,2471.934,2017-10-20T02:07:56Z
2017-10-20T00:08:06Z,42.805,6.029,13.2935,4.59961,2471.912,2017-10-20T02:09:31Z
2017-10-20T00:09:41Z,42.805,6.029,13.2934,4.59963,2471.912,2017-10-20T02:11:06Z
2017-10-20T00:11:15Z,42.805,6.029,13.2938,4.59961,2471.897,2017-10-20T02:12:40Z
2017-10-20T00:12:50Z,42.805,6.029,13.2939,4.59961,2471.919,2017-10-20T02:14:15Z
2017-10-20T00:14:25Z,42.805,6.029,13.2937,4.59960,2471.934,2017-10-20T02:15:50Z
2017-10-20T00:16:00Z,42.805,6.029,13.2935,4.59961,2471.942,2017-10-20T02:17:25Z
2017-10-20T00:17:35Z,42.805,6.029,13.2935,4.59960,2471.897,2017-10-20T02:19:00Z
2017-10-20T00:19:10Z,42.805,6.029,13.2935,4.59961,2471.912,2017-10-20T02:20:35Z
2017-10-20T00:20:44Z,42.805,6.029,13.2938,4.59961,2471.889,2017-10-20T02:22:10Z
2017-10-20T00:22:19Z,42.805,6.029,13.2933,4.59961,2471.919,2017-10-20T02:23:44Z
2017-10-20T00:23:54Z,42.805,6.029,13.2935,4.59960,2471.874,2017-10-20T02:25:19Z
2017-10-20T00:25:29Z,42.805,6.029,13.2938,4.59959,2471.912,2017-10-20T02:26:54Z
2017-10-20T00:27:04Z,42.805,6.029,13.2939,4.59960,2471.897,2017-10-20T02:28:29Z
2017-10-20T00:28:39Z,42.805,6.029,13.2939,4.59959,2471.934,2017-10-20T02:30:04Z
2017-10-20T00:30:13Z,42.805,6.029,13.2935,4.59960,2471.934,2017-10-20T02:31:39Z
2017-10-20T00:31:48Z,42.805,6.029,13.2936,4.59960,2471.874,2017-10-20T02:33:13Z
2017-10-20T00:33:23Z,42.805,6.029,13.2938,4.59961,2471.889,2017-10-20T02:34:48Z
2017-10-20T00:34:58Z,42.805,6.029,13.2935,4.59960,2471.874,2017-10-20T02:36:23Z
2017-10-20T00:36:33Z,42.805,6.029,13.2933,4.59961,2471.934,2017-10-20T02:37:58Z
2017-10-20T00:38:08Z,42.805,6.029,13.2940,4.59962,2471.889,2017-10-20T02:39:33Z
2017-10-20T00:39:43Z,42.805,6.029,13.2939,4.59964,2471.912,2017-10-20T02:41:08Z
2017-10-20T00:41:17Z,42.805,6.029,13.2945,4.59961,2471.919,2017-10-20T02:42:42Z
2017-10-20T00:42:52Z,42.805,6.029,13.2940,4.59961,2471.912,2017-10-20T02:44:17Z
2017-10-20T00:44:27Z,42.805,6.029,13.2937,4.59962,2471.889,2017-10-20T02:45:52Z
2017-10-20T00:46:02Z,42.805,6.029,13.2938,4.59962,2471.934,2017-10-20T02:47:27Z
2017-10-20T00:47:37Z,42.805,6.029,13.2935,4.59962,2471.889,2017-10-20T02:49:02Z
2017-10-20T00:49:12Z,42.805,6.029,13.2935,4.59962,2471.874,2017-10-20T02:50:37Z
2017-10-20T00:50:46Z,42.805,6.029,13.2949,4.59970,2471.912,2017-10-20T02:52:11Z
2017-10-20T00:52:21Z,42.805,6.029,13.2945,4.59962,2471.912,2017-10-20T02:53:46Z
2017-10-20T00:53:56Z,42.805,6.029,13.2943,4.59967,2471.889,2017-10-20T02:55:21Z
2017-10-20T00:55:31Z,42.805,6.029,13.2934,4.59962,2471.912,2017-10-20T02:56:56Z
2017-10-20T00:57:06Z,42.805,6.029,13.2934,4.59960,2471.889,2017-10-20T02:58:31Z
2017-10-20T00:58:41Z,42.805,6.029,13.2937,4.59961,2471.934,2017-10-20T03:00:06Z
2017-10-20T01:00:15Z,42.805,6.029,13.2935,4.59961,2471.889,2017-10-20T03:01:40Z
2017-10-20T01:01:50Z,42.805,6.029,13.2937,4.59959,2471.912,2017-10-20T03:03:15Z
2017-10-20T01:03:25Z,42.805,6.029,13.2936,4.59960,2471.889,2017-10-20T03:04:50Z
2017-10-20T01:05:00Z,42.805,6.029,13.2937,4.59959,2471.897,2017-10-20T03:06:25Z
2017-10-20T01:06:35Z,42.805,6.029,13.2937,4.59960,2471.889,2017-10-20T03:08:00Z
2017-10-20T01:08:10Z,42.805,6.029,13.2942,4.59961,2471.912,2017-10-20T03:09:35Z
2017-10-20T01:09:44Z,42.805,6.029,13.2939,4.59962,2471.912,2017-10-20T03:11:09Z
2017-10-20T01:11:19Z,42.805,6.029,13.2934,4.59962,2471.897,2017-10-20T03:12:44Z
2017-10-20T01:12:54Z,42.805,6.029,13.2936,4.59961,2471.852,2017-10-20T03:14:19Z
2017-10-20T01:14:29Z,42.805,6.029,13.2937,4.59960,2471.874,2017-10-20T03:15:54Z
2017-10-20T01:16:04Z,42.805,6.029,13.2935,4.59961,2471.912,2017-10-20T03:17:29Z
2017-10-20T01:17:39Z,42.805,6.029,13.2939,4.59963,2471.889,2017-10-20T03:19:04Z
2017-10-20T01:19:13Z,42.805,6.029,13.2935,4.59961,2471.874,2017-10-20T03:20:38Z
2017-10-20T01:20:48Z,42.805,6.029,13.2938,4.59963,2471.874,2017-10-20T03:22:13Z
2017-10-20T01:22:23Z,42.805,6.029,13.2940,4.59971,2471.844,2017-10-20T03:23:48Z
2017-10-20T01:23:58Z,42.805,6.029,13.2942,4.59964,2471.889,2017-10-20T03:25:23Z
2017-10-20T01:25:33Z,42.805,6.029,13.2935,4.59963,2471.912,2017-10-20T03:26:58Z
2017-10-20T01:27:08Z,42.805,6.029,13.2951,4.59981,2471.897,2017-10-20T03:28:33Z
2017-10-20T01:28:42Z,42.805,6.029,13.2952,4.59975,2471.919,2017-10-20T03:30:07Z
2017-10-20T01:30:17Z,42.805,6.029,13.2958,4.59982,2471.889,2017-10-20T03:31:42Z
2017-10-20T01:31:52Z,42.805,6.029,13.2953,4.59987,2471.889,2017-10-20T03:33:17Z
2017-10-20T01:33:27Z,42.805,6.029,13.2948,4.59972,2471.866,2017-10-20T03:34:52Z
2017-10-20T01:35:02Z,42.805,6.029,13.2939,4.59981,2471.874,2017-10-20T03:36:27Z
2017-10-20T01:36:37Z,42.805,6.029,13.2941,4.59968,2471.897,2017-10-20T03:38:02Z
2017-10-20T01:38:11Z,42.805,6.029,13.2941,4.59963,2471.889,2017-10-20T03:39:36Z
2017-10-20T01:39:46Z,42.805,6.029,13.2939,4.59963,2471.874,2017-10-20T03:41:11Z
2017-10-20T01:41:21Z,42.805,6.029,13.2943,4.59966,2471.866,2017-10-20T03:42:46Z
2017-10-20T01:42:56Z,42.805,6.029,13.2949,4.59985,2471.897,2017-10-20T03:44:21Z
2017-10-20T01:44:31Z,42.805,6.029,13.2940,4.59969,2471.874,2017-10-20T03:45:56Z
2017-10-20T01:46:06Z,42.805,6.029,13.2942,4.59964,2471.889,2017-10-20T03:47:31Z
2017-10-20T01:47:40Z,42.805,6.029,13.2946,4.59965,2471.866,2017-10-20T03:49:05Z
2017-10-20T01:49:15Z,42.805,6.029,13.2941,4.59995,2471.897,2017-10-20T03:50:40Z
2017-10-20T01:50:50Z,42.805,6.029,13.2959,4.59996,2471.912,2017-10-20T03:52:15Z
2017-10-20T01:52:25Z,42.805,6.029,13.2936,4.59969,2471.889,2017-10-20T03:53:50Z
2017-10-20T01:54:00Z,42.805,6.029,13.2939,4.59970,2471.866,2017-10-20T03:55:25Z
2017-10-20T01:55:35Z,42.805,6.029,13.2934,4.59967,2471.934,2017-10-20T03:57:00Z
2017-10-20T01:57:09Z,42.805,6.029,13.2947,4.59972,2471.912,2017-10-20T03:58:35Z
2017-10-20T01:58:44Z,42.805,6.029,13.2961,4.59972,2471.912,2017-10-20T04:00:09Z
2017-10-20T02:00:19Z,42.805,6.029,13.2951,4.59967,2471.889,2017-10-20T04:01:44Z
2017-10-20T02:01:54Z,42.805,6.029,13.2939,4.59964,2471.889,2017-10-20T04:03:19Z
2017-10-20T02:03:29Z,42.805,6.029,13.2944,4.59964,2471.889,2017-10-20T04:04:54Z
2017-10-20T02:05:04Z,42.805,6.029,13.2943,4.59978,2471.866,2017-10-20T04:06:29Z
2017-10-20T02:06:38Z,42.805,6.029,13.2958,4.59973,2471.889,2017-10-20T04:08:04Z
2017-10-20T02:08:13Z,42.805,6.029,13.2944,4.59972,2471.912,2017-10-20T04:09:38Z
2017-10-20T02:09:48Z,42.805,6.029,13.2958,4.59974,2471.889,2017-10-20T04:11:13Z
2017-10-20T02:11:23Z,42.805,6.029,13.2943,4.59976,2471.897,2017-10-20T04:12:48Z
2017-10-20T02:12:58Z,42.805,6.029,13.2966,4.59999,2471.897,2017-10-20T04:14:23Z
2017-10-20T02:14:33Z,42.805,6.029,13.2961,4.60035,2471.889,2017-10-20T04:15:58Z
2017-10-20T02:16:07Z,42.805,6.029,13.2954,4.60003,2471.874,2017-10-20T04:17:33Z
2017-10-20T02:17:42Z,42.805,6.029,13.2960,4.60058,2471.889,2017-10-20T04:19:07Z
2017-10-20T02:19:17Z,42.805,6.029,13.2956,4.60006,2471.889,2017-10-20T04:20:42Z
2017-10-20T02:20:52Z,42.805,6.029,13.2957,4.60004,2471.889,2017-10-20T04:22:17Z
2017-10-20T02:22:27Z,42.805,6.029,13.2954,4.60025,2471.889,2017-10-20T04:23:52Z
2017-10-20T02:24:02Z,42.805,6.029,13.2961,4.60013,2471.897,2017-10-20T04:25:27Z
2017-10-20T02:25:36Z,42.805,6.029,13.2959,4.60024,2471.866,2017-10-20T04:27:02Z
2017-10-20T02:27:11Z,42.805,6.029,13.2950,4.60010,2471.897,2017-10-20T04:28:36Z
2017-10-20T02:28:46Z,42.805,6.029,13.2956,4.60021,2471.897,2017-10-20T04:30:11Z
2017-10-20T02:30:21Z,42.805,6.029,13.2966,4.60043,2471.912,2017-10-20T04:31:46Z
2017-10-20T02:31:56Z,42.805,6.029,13.2965,4.60030,2471.912,2017-10-20T04:33:21Z
2017-10-20T02:33:31Z,42.805,6.029,13.2964,4.60032,2471.912,2017-10-20T04:34:56Z
2017-10-20T02:35:06Z,42.805,6.029,13.2964,4.60047,2471.889,2017-10-20T04:36:31Z
2017-10-20T02:36:40Z,42.805,6.029,13.2957,4.60049,2471.874,2017-10-20T04:38:05Z
2017-10-20T02:38:15Z,42.805,6.029,13.2960,4.60033,2471.889,2017-10-20T04:39:40Z
2017-10-20T02:39:50Z,42.805,6.029,13.2963,4.60042,2471.912,2017-10-20T04:41:15Z
2017-10-20T02:41:25Z,42.805,6.029,13.2961,4.60003,2471.912,2017-10-20T04:42:50Z
2017-10-20T02:43:00Z,42.805,6.029,13.2964,4.60034,2471.912,2017-10-20T04:44:25Z
2017-10-20T02:44:35Z,42.805,6.029,13.2962,4.60022,2471.897,2017-10-20T04:46:00Z
2017-10-20T02:46:09Z,42.805,6.029,13.2965,4.60044,2471.934,2017-10-20T04:47:34Z
2017-10-20T02:47:44Z,42.805,6.029,13.2952,4.60026,2471.904,2017-10-20T04:49:09Z
2017-10-20T02:49:19Z,42.805,6.029,13.2964,4.60018,2471.934,2017-10-20T04:50:44Z
2017-10-20T02:50:54Z,42.805,6.029,13.2975,4.60011,2471.874,2017-10-20T04:52:19Z
2017-10-20T02:52:29Z,42.805,6.029,13.2966,4.60006,2471.866,2017-10-20T04:53:54Z
2017-10-20T02:54:04Z,42.805,6.029,13.2963,4.60010,2471.912,2017-10-20T04:55:29Z
2017-10-20T02:55:38Z,42.805,6.029,13.2968,4.60037,2471.912,2017-10-20T04:57:03Z
2017-10-20T02:57:13Z,42.805,6.029,13.2956,4.60046,2471.889,2017-10-20T04:58:38Z
2017-10-20T02:58:48Z,42.805,6.029,13.2969,4.59998,2471.889,2017-10-20T05:00:13Z
2017-10-20T03:00:23Z,42.805,6.029,13.2964,4.59995,2471.912,2017-10-20T05:01:48Z
2017-10-20T03:01:58Z,42.805,6.029,13.2963,4.60010,2471.874,2017-10-20T05:03:23Z
2017-10-20T03:03:33Z,42.805,6.029,13.2970,4.60023,2471.934,2017-10-20T05:04:58Z
2017-10-20T03:05:07Z,42.805,6.029,13.2966,4.60029,2471.889,2017-10-20T05:06:32Z
2017-10-20T03:06:42Z,42.805,6.029,13.2966,4.60049,2471.912,2017-10-20T05:08:07Z
2017-10-20T03:08:17Z,42.805,6.029,13.2978,4.60069,2471.934,2017-10-20T05:09:42Z
2017-10-20T03:09:52Z,42.805,6.029,13.2973,4.60052,2471.897,2017-10-20T05:11:17Z
2017-10-20T03:11:27Z,42.805,6.029,13.2968,4.60037,2471.912,2017-10-20T05:12:52Z
2017-10-20T03:13:02Z,42.805,6.029,13.2973,4.60015,2471.934,2017-10-20T05:14:27Z
2017-10-20T03:14:36Z,42.805,6.029,13.2957,4.60009,2471.957,2017-10-20T05:16:01Z
2017-10-20T03:16:11Z,42.805,6.029,13.2964,4.60038,2471.934,2017-10-20T05:17:36Z
2017-10-20T03:17:46Z,42.805,6.029,13.2969,4.60033,2471.934,2017-10-20T05:19:11Z
2017-10-20T03:19:21Z,42.805,6.029,13.2982,4.60003,2471.912,2017-10-20T05:20:46Z
2017-10-20T03:20:56Z,42.805,6.029,13.2963,4.60055,2471.957,2017-10-20T05:22:21Z
2017-10-20T03:22:31Z,42.805,6.029,13.2966,4.60029,2471.957,2017-10-20T05:23:56Z
2017-10-20T03:24:05Z,42.805,6.029,13.2968,4.60010,2471.919,2017-10-20T05:25:30Z
2017-10-20T03:25:40Z,42.805,6.029,13.2961,4.60013,2471.934,2017-10-20T05:27:05Z
2017-10-20T03:27:15Z,42.805,6.029,13.2949,4.60044,2471.934,2017-10-20T05:28:40Z
2017-10-20T03:28:50Z,42.805,6.029,13.2966,4.60066,2471.934,2017-10-20T05:30:15Z
2017-10-20T03:30:25Z,42.805,6.029,13.2954,4.60010,2471.912,2017-10-20T05:31:50Z
2017-10-20T03:32:00Z,42.805,6.029,13.2956,4.60068,2471.897,2017-10-20T05:33:25Z
2017-10-20T03:33:34Z,42.805,6.029,13.2980,4.60037,2471.912,2017-10-20T05:34:59Z
2017-10-20T03:35:09Z,42.805,6.029,13.2958,4.60026,2471.942,2017-10-20T05:36:34Z
2017-10-20T03:36:44Z,42.805,6.029,13.2966,4.60047,2471.942,2017-10-20T05:38:09Z
2017-10-20T03:38:19Z,42.805,6.029,13.2970,4.60018,2471.934,2017-10-20T05:39:44Z
2017-10-20T03:39:54Z,42.805,6.029,13.2957,4.60042,2471.934,2017-10-20T05:41:19Z
2017-10-20T03:41:29Z,42.805,6.029,13.2959,4.60047,2471.919,2017-10-20T05:42:54Z
2017-10-20T03:43:03Z,42.805,6.029,13.2966,4.60021,2471.957,2017-10-20T05:44:29Z
2017-10-20T03:44:38Z,42.805,6.029,13.2970,4.60027,2471.934,2017-10-20T05:46:03Z
2017-10-20T03:46:13Z,42.805,6.029,13.2958,4.60009,2471.934,2017-10-20T05:47:38Z
2017-10-20T03:47:48Z,42.805,6.029,13.2959,4.60041,2471.957,2017-10-20T05:49:13Z
2017-10-20T03:49:23Z,42.805,6.029,13.2952,4.59994,2471.957,2017-10-20T05:50:48Z
2017-10-20T03:50:58Z,42.805,6.029,13.2958,4.60005,2471.942,2017-10-20T05:52:23Z
2017-10-20T03:52:32Z,42.805,6.029,13.2952,4.60025,2471.934,2017-10-20T05:53:58Z
2017-10-20T03:54:07Z,42.805,6.029,13.2958,4.60016,2471.957,2017-10-20T05:55:32Z
2017-10-20T03:55:42Z,42.805,6.029,13.2961,4.60032,2471.979,2017-10-20T05:57:07Z
2017-10-20T03:57:17Z,42.805,6.029,13.2975,4.60035,2471.979,2017-10-20T05:58:42Z
2017-10-20T03:58:52Z,42.805,6.029,13.2971,4.60045,2471.957,2017-10-20T06:00:17Z
2017-10-20T04:00:27Z,42.805,6.029,13.2968,4.60046,2471.934,2017-10-20T06:01:52Z
2017-10-20T04:02:01Z,42.805,6.029,13.2966,4.60034,2471.957,2017-10-20T06:03:27Z
2017-10-20T04:03:36Z,42.805,6.029,13.2982,4.60064,2471.987,2017-10-20T06:05:01Z
2017-10-20T04:05:11Z,42.805,6.029,13.2979,4.60086,2471.979,2017-10-20T06:06:36Z
2017-10-20T04:06:46Z,42.805,6.029,13.2976,4.59995,2471.942,2017-10-20T06:08:11Z
2017-10-20T04:08:21Z,42.805,6.029,13.2962,4.60012,2471.957,2017-10-20T06:09:46Z
2017-10-20T04:09:56Z,42.805,6.029,13.2958,4.60041,2471.957,2017-10-20T06:11:21Z
2017-10-20T04:11:30Z,42.805,6.029,13.2973,4.60003,2471.979,2017-10-20T06:12:56Z
2017-10-20T04:13:05Z,42.805,6.029,13.2967,4.60022,2471.957,2017-10-20T06:14:30Z
2017-10-20T04:14:40Z,42.805,6.029,13.2967,4.60037,2472.002,2017-10-20T06:16:05Z
2017-10-20T04:16:15Z,42.805,6.029,13.2976,4.60015,2471.979,2017-10-20T06:17:40Z
2017-10-20T04:17:50Z,42.805,6.029,13.2978,4.60029,2471.979,2017-10-20T06:19:15Z
2017-10-20T04:19:25Z,42.805,6.029,13.2981,4.60057,2472.002,2017-10-20T06:20:50Z
2017-10-20T04:21:00Z,42.805,6.029,13.2968,4.60057,2471.979,2017-10-20T06:22:25Z
2017-10-20T04:22:34Z,42.805,6.029,13.2974,4.60056,2471.979,2017-10-20T06:23:59Z
2017-10-20T04:24:09Z,42.805,6.029,13.2956,4.60060,2471.987,2017-10-20T06:25:34Z
2017-10-20T04:25:44Z,42.805,6.029,13.2957,4.60064,2472.002,2017-10-20T06:27:09Z
2017-10-20T04:27:19Z,42.805,6.029,13.2974,4.60052,2471.979,2017-10-20T06:28:44Z
2017-10-20T04:28:54Z,42.805,6.029,13.2980,4.60069,2471.987,2017-10-20T06:30:19Z
2017-10-20T04:30:29Z,42.805,6.029,13.2982,4.60035,2471.979,2017-10-20T06:31:54Z
2017-10-20T04:32:03Z,42.805,6.029,13.2985,4.60044,2472.002,2017-10-20T06:33:28Z
2017-10-20T04:33:38Z,42.805,6.029,13.2976,4.60068,2472.002,2017-10-20T06:35:03Z
2017-10-20T04:35:13Z,42.805,6.029,13.2978,4.60077,2471.979,2017-10-20T06:36:38Z
2017-10-20T04:36:48Z,42.805,6.029,13.2973,4.60086,2472.002,2017-10-20T06:38:13Z
2017-10-20T04:38:23Z,42.805,6.029,13.2977,4.60043,2472.002,2017-10-20T06:39:48Z
2017-10-20T04:39:58Z,42.805,6.029,13.2952,4.60012,2471.964,2017-10-20T06:41:23Z
2017-10-20T04:41:32Z,42.805,6.029,13.2952,4.60026,2471.979,2017-10-20T06:42:57Z
2017-10-20T04:43:07Z,42.805,6.029,13.2957,4.60020,2471.987,2017-10-20T06:44:32Z
2017-10-20T04:44:42Z,42.805,6.029,13.2954,4.60034,2471.979,2017-10-20T06:46:07Z
2017-10-20T04:46:17Z,42.805,6.029,13.2967,4.60039,2472.024,2017-10-20T06:47:42Z
2017-10-20T04:47:52Z,42.805,6.029,13.2972,4.60057,2471.979,2017-10-20T06:49:17Z
2017-10-20T04:49:27Z,42.805,6.029,13.2973,4.60064,2471.979,2017-10-20T06:50:52Z
2017-10-20T04:51:01Z,42.805,6.029,13.2964,4.60090,2472.002,2017-10-20T06:52:26Z
2017-10-20T04:52:36Z,42.805,6.029,13.2978,4.60029,2472.024,2017-10-20T06:54:01Z
2017-10-20T04:54:11Z,42.805,6.029,13.2950,4.60005,2472.024,2017-10-20T06:55:36Z
2017-10-20T04:55:46Z,42.805,6.029,13.2962,4.60021,2472.002,2017-10-20T06:57:11Z
2017-10-20T04:57:21Z,42.805,6.029,13.2977,4.60023,2472.002,2017-10-20T06:58:46Z
2017-10-20T04:58:56Z,42.805,6.029,13.2980,4.60003,2471.979,2017-10-20T07:00:21Z
2017-10-20T05:00:30Z,42.805,6.029,13.2979,4.60017,2471.987,2017-10-20T07:01:55Z
2017-10-20T05:02:05Z,42.805,6.029,13.2968,4.60026,2472.002,2017-10-20T07:03:30Z
2017-10-20T05:03:40Z,42.805,6.029,13.2974,4.60029,2472.002,2017-10-20T07:05:05Z
2017-10-20T05:05:15Z,42.805,6.029,13.2966,4.60025,2471.987,2017-10-20T07:06:40Z
2017-10-20T05:06:50Z,42.805,6.029,13.2954,4.60031,2472.002,2017-10-20T07:08:15Z
2017-10-20T05:08:25Z,42.805,6.029,13.2953,4.60035,2472.002,2017-10-20T07:09:50Z
2017-10-20T05:09:59Z,42.805,6.029,13.2957,4.60036,2472.01,2017-10-20T07:11:24Z
2017-10-20T05:11:34Z,42.805,6.029,13.2960,4.60040,2472.032,2017-10-20T07:12:59Z
2017-10-20T05:13:09Z,42.805,6.029,13.2973,4.60103,2472.047,2017-10-20T07:14:34Z
2017-10-20T05:14:44Z,42.805,6.029,13.2975,4.60069,2472.069,2017-10-20T07:16:09Z
2017-10-20T05:16:19Z,42.805,6.029,13.2978,4.60084,2472.024,2017-10-20T07:17:44Z
2017-10-20T05:17:54Z,42.805,6.029,13.2986,4.60041,2472.024,2017-10-20T07:19:19Z
2017-10-20T05:19:28Z,42.805,6.029,13.2992,4.59990,2472.047,2017-10-20T07:20:53Z
2017-10-20T05:21:03Z,42.805,6.029,13.2995,4.59995,2472.032,2017-10-20T07:22:28Z
2017-10-20T05:22:38Z,42.805,6.029,13.3016,4.60003,2472.047,2017-10-20T07:24:03Z
2017-10-20T05:24:13Z,42.805,6.029,13.3024,4.60018,2472.047,2017-10-20T07:25:38Z
2017-10-20T05:25:48Z,42.805,6.029,13.3021,4.59994,2472.047,2017-10-20T07:27:13Z
2017-10-20T05:27:23Z,42.805,6.029,13.3017,4.59985,2472.047,2017-10-20T07:28:48Z
2017-10-20T05:28:57Z,42.805,6.029,13.3019,4.59978,2472.01,2017-10-20T07:30:23Z
2017-10-20T05:30:32Z,42.805,6.029,13.3034,4.59989,2472.024,2017-10-20T07:31:57Z
2017-10-20T05:32:07Z,42.805,6.029,13.3012,4.59998,2472.032,2017-10-20T07:33:32Z
2017-10-20T05:33:42Z,42.805,6.029,13.3015,4.60009,2472.047,2017-10-20T07:35:07Z
2017-10-20T05:35:17Z,42.805,6.029,13.3009,4.60007,2472.032,2017-10-20T07:36:42Z
2017-10-20T05:36:52Z,42.805,6.029,13.3006,4.59999,2472.047,2017-10-20T07:38:17Z
2017-10-20T05:38:26Z,42.805,6.029,13.2996,4.59998,2472.047,2017-10-20T07:39:52Z
2017-10-20T05:40:01Z,42.805,6.029,13.2977,4.60001,2472.047,2017-10-20T07:41:26Z
2017-10-20T05:41:36Z,42.805,6.029,13.2975,4.60003,2472.047,2017-10-20T07:43:01Z
2017-10-20T05:43:11Z,42.805,6.029,13.2983,4.60006,2472.069,2017-10-20T07:44:36Z
2017-10-20T05:44:46Z,42.805,6.029,13.2979,4.60007,2472.032,2017-10-20T07:46:11Z
2017-10-20T05:46:21Z,42.805,6.029,13.2976,4.60022,2472.069,2017-10-20T07:47:46Z
2017-10-20T05:47:56Z,42.805,6.029,13.2973,4.60025,2472.047,2017-10-20T07:49:21Z
2017-10-20T05:49:30Z,42.805,6.029,13.2979,4.60018,2472.069,2017-10-20T07:50:55Z
2017-10-20T05:51:05Z,42.805,6.029,13.2994,4.60009,2472.092,2017-10-20T07:52:30Z
2017-10-20T05:52:40Z,42.805,6.029,13.3010,4.60015,2472.069,2017-10-20T07:54:05Z
2017-10-20T05:54:15Z,42.805,6.029,13.3015,4.60052,2472.047,2017-10-20T07:55:40Z
2017-10-20T05:55:50Z,42.805,6.029,13.3021,4.60059,2472.092,2017-10-20T07:57:15Z
2017-10-20T05:57:25Z,42.805,6.029,13.3021,4.60054,2472.069,2017-10-20T07:58:50Z
2017-10-20T05:58:59Z,42.805,6.029,13.3016,4.60027,2472.092,2017-10-20T08:00:24Z
2017-10-20T06:00:34Z,42.805,6.029,13.3013,4.60010,2472.069,2017-10-20T08:01:59Z
2017-10-20T06:02:09Z,42.805,6.029,13.3016,4.60018,2472.069,2017-10-20T08:03:34Z
2017-10-20T06:03:44Z,42.805,6.029,13.3019,4.60021,2472.092,2017-10-20T08:05:09Z
2017-10-20T06:05:19Z,42.805,6.029,13.3017,4.60037,2472.107,2017-10-20T08:06:44Z
2017-10-20T06:06:54Z,42.805,6.029,13.3007,4.60030,2472.069,2017-10-20T08:08:19Z
2017-10-20T06:08:28Z,42.805,6.029,13.2989,4.60023,2472.092,2017-10-20T08:09:53Z
2017-10-20T06:10:03Z,42.805,6.029,13.3003,4.60022,2472.092,2017-10-20T08:11:28Z
2017-10-20T06:11:38Z,42.805,6.029,13.2996,4.60037,2472.092,2017-10-20T08:13:03Z
2017-10-20T06:13:13Z,42.805,6.029,13.2980,4.60018,2472.069,2017-10-20T08:14:38Z
2017-10-20T06:14:48Z,42.805,6.029,13.2982,4.60022,2472.069,2017-10-20T08:16:13Z
2017-10-20T06:16:23Z,42.805,6.029,13.2988,4.60012,2472.092,2017-10-20T08:17:48Z
2017-10-20T06:17:57Z,42.805,6.029,13.2991,4.60033,2472.092,2017-10-20T08:19:22Z
2017-10-20T06:19:32Z,42.805,6.029,13.2988,4.60015,2472.069,2017-10-20T08:20:57Z
2017-10-20T06:21:07Z,42.805,6.029,13.3006,4.60028,2472.092,2017-10-20T08:22:32Z
2017-10-20T06:22:42Z,42.805,6.029,13.3026,4.60024,2472.077,2017-10-20T08:24:07Z
2017-10-20T06:24:17Z,42.805,6.029,13.3025,4.60038,2472.047,2017-10-20T08:25:42Z
2017-10-20T06:25:52Z,42.805,6.029,13.3041,4.60062,2472.069,2017-10-20T08:27:17Z
2017-10-20T06:27:26Z,42.805,6.029,13.3034,4.60052,2472.092,2017-10-20T08:28:51Z
2017-10-20T06:29:01Z,42.805,6.029,13.3034,4.60035,2472.092,2017-10-20T08:30:26Z
2017-10-20T06:30:36Z,42.805,6.029,13.2945,4.60032,2472.077,2017-10-20T08:32:01Z
2017-10-20T06:32:11Z,42.805,6.029,13.2940,4.60035,2472.092,2017-10-20T08:33:36Z
2017-10-20T06:33:46Z,42.805,6.029,13.2941,4.60009,2472.092,2017-10-20T08:35:11Z
2017-10-20T06:35:21Z,42.805,6.029,13.2940,4.59985,2472.092,2017-10-20T08:36:46Z
2017-10-20T06:36:55Z,42.805,6.029,13.2939,4.59994,2472.092,2017-10-20T08:38:20Z
2017-10-20T06:38:30Z,42.805,6.029,13.2936,4.59985,2472.092,2017-10-20T08:39:55Z
2017-10-20T06:40:05Z,42.805,6.029,13.2938,4.59974,2472.092,2017-10-20T08:41:30Z
2017-10-20T06:41:40Z,42.805,6.029,13.2938,4.59974,2472.137,2017-10-20T08:43:05Z
2017-10-20T06:43:15Z,42.805,6.029,13.2933,4.59981,2472.115,2017-10-20T08:44:40Z
2017-10-20T06:44:50Z,42.805,6.029,13.2939,4.59989,2472.115,2017-10-20T08:46:15Z
2017-10-20T06:46:24Z,42.805,6.029,13.2942,4.59987,2472.115,2017-10-20T08:47:49Z
2017-10-20T06:47:59Z,42.805,6.029,13.2937,4.59980,2472.115,2017-10-20T08:49:24Z
2017-10-20T06:49:34Z,42.805,6.029,13.2939,4.59989,2472.092,2017-10-20T08:50:59Z
2017-10-20T06:51:09Z,42.805,6.029,13.2935,4.59987,2472.115,2017-10-20T08:52:34Z
2017-10-20T06:52:44Z,42.805,6.029,13.2940,4.59986,2472.115,2017-10-20T08:54:09Z
2017-10-20T06:54:19Z,42.805,6.029,13.2934,4.59986,2472.137,2017-10-20T08:55:44Z
2017-10-20T06:55:53Z,42.805,6.029,13.2937,4.59984,2472.092,2017-10-20T08:57:18Z
2017-10-20T06:57:28Z,42.805,6.029,13.2939,4.59987,2472.092,2017-10-20T08:58:53Z
2017-10-20T06:59:03Z,42.805,6.029,13.2937,4.59988,2472.137,2017-10-20T09:00:28Z
2017-10-20T07:00:38Z,42.805,6.029,13.2939,4.59988,2472.1,2017-10-20T09:02:03Z
2017-10-20T07:02:13Z,42.805,6.029,13.2939,4.59984,2472.115,2017-10-20T09:03:38Z
2017-10-20T07:03:48Z,42.805,6.029,13.2935,4.59987,2472.115,2017-10-20T09:05:13Z
2017-10-20T07:05:22Z,42.805,6.029,13.2937,4.59983,2472.077,2017-10-20T09:06:48Z
2017-10-20T07:06:57Z,42.805,6.029,13.2940,4.59981,2472.092,2017-10-20T09:08:22Z
2017-10-20T07:08:32Z,42.805,6.029,13.2935,4.59985,2472.077,2017-10-20T09:09:57Z
2017-10-20T07:10:07Z,42.805,6.029,13.2936,4.59984,2472.123,2017-10-20T09:11:32Z
2017-10-20T07:11:42Z,42.805,6.029,13.2935,4.59985,2472.137,2017-10-20T09:13:07Z
2017-10-20T07:13:17Z,42.805,6.029,13.2938,4.59983,2472.115,2017-10-20T09:14:42Z
2017-10-20T07:14:51Z,42.805,6.029,13.2940,4.59989,2472.137,2017-10-20T09:16:17Z
2017-10-20T07:16:26Z,42.805,6.029,13.2936,4.59985,2472.092,2017-10-20T09:17:51Z
2017-10-20T07:18:01Z,42.805,6.029,13.2939,4.59992,2472.137,2017-10-20T09:19:26Z
2017-10-20T07:19:36Z,42.805,6.029,13.2935,4.59983,2472.077,2017-10-20T09:21:01Z
2017-10-20T07:21:11Z,42.805,6.029,13.2938,4.59980,2472.115,2017-10-20T09:22:36Z
2017-10-20T07:22:46Z,42.805,6.029,13.2937,4.59984,2472.115,2017-10-20T09:24:11Z
2017-10-20T07:24:20Z,42.805,6.029,13.2937,4.59984,2472.092,2017-10-20T09:25:46Z
2017-10-20T07:25:55Z,42.805,6.029,13.2933,4.59984,2472.1,2017-10-20T09:27:20Z
2017-10-20T07:27:30Z,42.805,6.029,13.2935,4.59987,2472.137,2017-10-20T09:28:55Z
2017-10-20T07:29:05Z,42.805,6.029,13.2941,4.59984,2472.115,2017-10-20T09:30:30Z
2017-10-20T07:30:40Z,42.805,6.029,13.2935,4.59975,2472.092,2017-10-20T09:32:05Z
2017-10-20T07:32:15Z,42.805,6.029,13.2939,4.59982,2472.115,2017-10-20T09:33:40Z
2017-10-20T07:33:49Z,42.805,6.029,13.2934,4.59981,2472.092,2017-10-20T09:35:15Z
2017-10-20T07:35:24Z,42.805,6.029,13.2939,4.59981,2472.115,2017-10-20T09:36:49Z
2017-10-20T07:36:59Z,42.805,6.029,13.2937,4.59981,2472.1,2017-10-20T09:38:24Z
2017-10-20T07:38:34Z,42.805,6.029,13.2935,4.59981,2472.1,2017-10-20T09:39:59Z
2017-10-20T07:40:09Z,42.805,6.029,13.2938,4.59984,2472.137,2017-10-20T09:41:34Z
2017-10-20T07:41:44Z,42.805,6.029,13.2935,4.59976,2472.137,2017-10-20T09:43:09Z
2017-10-20T07:43:19Z,42.805,6.029,13.2937,4.59983,2472.1,2017-10-20T09:44:44Z
2017-10-20T07:44:53Z,42.805,6.029,13.2937,4.59977,2472.115,2017-10-20T09:46:18Z